Location: Aytr�
(46.1357°N, 1.1145°W)
Time: 05:48:53
(UTC+00:00)

Cosmos 1271 Rocket - Pass Details

Date: 03 March 2021
Orbit: 498 x 544 km, 81.2° (Epoch: 18 April)

Event Time Altitude Azimuth Distance (km) Brightness Sun altitude
Rises 18:28:37 0° 346° (NNW) 2,601 6.4 -6.8°
Reaches altitude 10° 18:30:45 10° 344° (NNW) 1,713 5.5 -7.2°
Maximum altitude 18:34:29 68° 262° (W) 544 3.1 -7.8°
Drops below altitude 10° 18:38:12 10° 179° (S) 1,709 5.3 -8.5°
Sets 18:40:19 0° 177° (S) 2,594 6.2 -8.9°
